TimeEST,TemperatureF,Dew PointF,Humidity,Sea Level PressureIn,VisibilityMPH,Wind Direction,Wind SpeedMPH,Gust SpeedMPH,PrecipitationIn,Events,Conditions,WindDirDegrees,DateUTC
12:53 AM,64.0,62.1,93,29.93,5.0,Calm,Calm,-,N/A,,Partly Cloudy,0,2012-11-06 05:53:00
1:53 AM,64.9,63.0,93,29.90,6.0,Calm,Calm,-,N/A,,Clear,0,2012-11-06 06:53:00
2:53 AM,64.0,63.0,96,29.90,5.0,Calm,Calm,-,N/A,,Mostly Cloudy,0,2012-11-06 07:53:00
3:53 AM,64.9,63.0,93,29.89,6.0,SW,3.5,-,N/A,,Overcast,230,2012-11-06 08:53:00
4:53 AM,64.9,62.1,90,29.89,8.0,SW,3.5,-,N/A,,Scattered Clouds,220,2012-11-06 09:53:00
5:53 AM,64.0,62.1,93,29.92,7.0,West,3.5,-,N/A,,Overcast,280,2012-11-06 10:53:00
6:53 AM,64.4,62.6,94,29.92,6.0,Calm,Calm,-,N/A,,Mostly Cloudy,0,2012-11-06 11:53:00
7:53 AM,64.9,62.1,90,29.92,7.0,WSW,3.5,-,N/A,,Clear,240,2012-11-06 12:53:00
8:53 AM,72.0,61.0,68,29.94,10.0,WSW,5.8,-,N/A,,Mostly Cloudy,250,2012-11-06 13:53:00
9:53 AM,75.0,57.9,55,29.94,10.0,WSW,5.8,-,N/A,,Partly Cloudy,240,2012-11-06 14:53:00
10:53 AM,78.1,59.0,52,29.92,10.0,WSW,10.4,-,N/A,,Clear,240,2012-11-06 15:53:00
11:53 AM,77.0,57.0,50,29.88,10.0,NW,8.1,-,N/A,,Scattered Clouds,320,2012-11-06 16:53:00
12:53 PM,77.0,55.9,48,29.86,10.0,West,8.1,-,N/A,,Clear,260,2012-11-06 17:53:00
1:53 PM,79.0,57.9,48,29.83,10.0,WSW,8.1,17.3,N/A,,Clear,250,2012-11-06 18:53:00
2:53 PM,78.1,59.0,52,29.83,10.0,West,9.2,17.3,N/A,,Clear,270,2012-11-06 19:53:00
3:53 PM,75.9,60.1,58,29.83,10.0,WSW,13.8,18.4,N/A,,Overcast,250,2012-11-06 20:53:00
4:53 PM,75.0,62.1,64,29.82,10.0,WSW,6.9,-,N/A,,Overcast,240,2012-11-06 21:53:00
5:53 PM,72.0,62.1,71,29.83,10.0,WSW,6.9,-,N/A,,Scattered Clouds,240,2012-11-06 22:53:00
6:53 PM,69.1,62.1,78,29.84,10.0,WSW,3.5,-,N/A,,Scattered Clouds,240,2012-11-06 23:53:00
7:53 PM,66.9,61.0,81,29.86,10.0,WSW,4.6,-,N/A,,Partly Cloudy,240,2012-11-07 00:53:00
8:53 PM,66.0,62.1,87,29.86,10.0,WSW,4.6,-,N/A,,Clear,240,2012-11-07 01:53:00
9:53 PM,64.0,61.0,90,29.88,10.0,West,4.6,-,N/A,,Clear,280,2012-11-07 02:53:00
10:53 PM,63.0,61.0,93,29.87,10.0,WNW,5.8,-,N/A,,Clear,290,2012-11-07 03:53:00
11:53 PM,62.1,61.0,96,29.86,10.0,WNW,4.6,-,N/A,,Clear,290,2012-11-07 04:53:00